Abilene, TX

4:37 PM CDT on April 20, 2018 (GMT -0500)
Abilene Regional

Weather History for KABI - December, 2014

Change the Weather History Date:

Sunday, December 7, 2014

  Actual Average Record
Temperature  
Mean Temperature 52 °F 46 °F  
Max Temperature 57 °F 58 °F 83 °F (1966)
Min Temperature 46 °F 35 °F 14 °F (2013)
Degree Days  
Heating Degree Days 13 18  
Month to date heating degree days 89 123  
Since 1 July heating degree days 506 556  
Cooling Degree Days 0 0  
Month to date cooling degree days 0 0  
Year to date cooling degree days 2819 2408  
Growing Degree Days 2 (Base 50)    
Moisture  
Dew Point 46 °F    
Average Humidity 80    
Maximum Humidity 93    
Minimum Humidity 66    
Precipitation  
Precipitation 0.00 in 0.05 in 0.67 in (1980)
Month to date precipitation 0.00 0.28  
Year to date precipitation 14.49 23.87  
Sea Level Pressure  
Sea Level Pressure 30.32 in    
Wind  
Wind Speed 6 mph (ESE)    
Max Wind Speed 14 mph    
Max Gust Speed 17 mph    
Visibility 7 miles    
Events Fog    
T = Trace of Precipitation, MM = Missing Value Source: NWS Daily Summary

Daily Weather History Graph

Daily Weather History Graph

Search for Another Location

Airport or City:

Astronomy

Dec. 07, 2014 Rise Set
Actual Time 7:27 AM CST 5:33 PM CST
Civil Twilight 7:00 AM CST 6:00 PM CST
Nautical Twilight 6:29 AM CST 6:30 PM CST
Astronomical Twilight 5:59 AM CST 7:00 PM CST
Moon 7:00 PM CST (12/7) 8:15 AM CST (12/7)
Length of Visible Light 11h 00m
Length of Day
10h 06m
Full, 98% of the Moon is Illuminated
Dec 7
Full
Dec 14
Last Quarter
Dec 21
New
Dec 28
First Quarter
Jan 4
Full

Hourly Weather History & Observations

Time (CST) Temp. Windchill Dew Point Humidity Pressure Visibility Wind Dir Wind Speed Gust Speed Precip Events Conditions
12:45 AM 48.0 °F - 45.0 °F 89% 30.42 in 7.0 mi ENE 8.1 mph - N/A   Overcast
12:52 AM 48.0 °F - 45.0 °F 89% 30.40 in 6.0 mi ENE 8.1 mph - N/A   Overcast
1:52 AM 48.0 °F - 46.0 °F 93% 30.40 in 5.0 mi East 5.8 mph - N/A   Overcast
2:52 AM 46.9 °F - 45.0 °F 93% 30.38 in 4.0 mi East 6.9 mph - N/A   Overcast
3:52 AM 46.9 °F - 45.0 °F 93% 30.37 in 5.0 mi ENE 6.9 mph - N/A   Overcast
4:52 AM 46.9 °F - 45.0 °F 93% 30.35 in 5.0 mi East 5.8 mph - N/A   Overcast
5:52 AM 46.9 °F - 45.0 °F 93% 30.37 in 5.0 mi ENE 4.6 mph - N/A   Overcast
6:52 AM 46.9 °F - 45.0 °F 93% 30.38 in 0.5 mi NE 5.8 mph - N/A Fog Fog
7:40 AM 46.0 °F 42.5 °F 45.0 °F 96% 30.39 in 1.0 mi East 6.9 mph - N/A   Overcast
7:52 AM 46.9 °F - 45.0 °F 93% 30.38 in 1.5 mi ESE 6.9 mph - N/A   Overcast
8:52 AM 48.0 °F - 45.0 °F 89% 30.38 in 2.0 mi SE 9.2 mph - N/A   Overcast
9:12 AM 48.0 °F - 45.0 °F 89% 30.39 in 2.0 mi SE 6.9 mph - N/A   Overcast
9:52 AM 48.9 °F - 45.0 °F 86% 30.38 in 4.0 mi SE 5.8 mph - N/A   Overcast
10:47 AM 51.8 °F - 46.4 °F 82% 30.38 in 10.0 mi SSE 8.1 mph - N/A   Overcast
10:52 AM 51.1 °F - 46.0 °F 83% 30.37 in 10.0 mi SSE 8.1 mph - N/A   Overcast
11:52 AM 54.0 °F - 46.0 °F 75% 30.34 in 10.0 mi SSW 6.9 mph - N/A   Overcast
12:52 PM 55.0 °F - 45.0 °F 69% 30.30 in 10.0 mi SW 5.8 mph - N/A   Overcast
1:40 PM 55.9 °F - 45.0 °F 67% 30.29 in 10.0 mi WSW 4.6 mph - N/A   Scattered Clouds
1:52 PM 55.9 °F - 45.0 °F 67% 30.27 in 10.0 mi South 9.2 mph - N/A   Mostly Cloudy
2:52 PM 55.0 °F - 45.0 °F 69% 30.23 in 10.0 mi SSE 5.8 mph - N/A   Mostly Cloudy
3:52 PM 55.0 °F - 45.0 °F 69% 30.26 in 10.0 mi West 5.8 mph - N/A   Mostly Cloudy
4:52 PM 52.0 °F - 46.9 °F 83% 30.26 in 9.0 mi NNE 8.1 mph - N/A   Overcast
5:52 PM 51.1 °F - 46.9 °F 86% 30.23 in 10.0 mi NNE 8.1 mph - N/A   Scattered Clouds
6:15 PM 50.0 °F - 46.9 °F 89% 30.26 in 10.0 mi NNW 4.6 mph - N/A   Mostly Cloudy
6:26 PM 51.1 °F - 46.9 °F 86% 30.26 in 10.0 mi North 4.6 mph - N/A   Mostly Cloudy
6:52 PM 51.1 °F - 46.9 °F 86% 30.25 in 10.0 mi NNE 3.5 mph - N/A   Overcast
7:52 PM 50.0 °F - 46.9 °F 89% 30.27 in 8.0 mi ENE 5.8 mph - N/A   Overcast
8:52 PM 48.9 °F - 46.0 °F 90% 30.28 in 9.0 mi ESE 5.8 mph - N/A   Overcast
9:52 PM 48.0 °F - 46.0 °F 93% 30.29 in 7.0 mi Calm Calm - N/A   Overcast
10:08 PM 48.0 °F - 45.0 °F 89% 30.30 in 7.0 mi SSE 4.6 mph - N/A   Overcast
10:52 PM 48.0 °F - 45.0 °F 89% 30.30 in 7.0 mi SE 4.6 mph - N/A   Overcast
11:24 PM 48.0 °F - 46.0 °F 93% 30.31 in 8.0 mi South 5.8 mph - N/A   Overcast
11:52 PM 48.0 °F - 45.0 °F 89% 30.29 in 8.0 mi SSE 6.9 mph - N/A   Overcast